When you browse on this site, cookies collect data to enhance your experience and personalize the content and advertising you see.
Visit our Privacy Policy to learn more. By continuing to use the site, you agree to this use of cookies and data.
  • In Hungary
  • List of Countries
  • For 7 days
  • Water Temperature
  • Satellite Maps
  • Weather Map
  • News
  • Weather Widgets
  • user-avatar
    Login

    Hourly Weather Niscemi

    Today, 24 June, Monday

    Time Temperature Precipitation Wind Pressure Humidity
    00:00 +25°C° 0 mm 1 mps 734 mmHg 50%
    01:00 +25°C° 0 mm 1 mps 734 mmHg 51%
    02:00 +24°C° 0 mm 1 mps 734 mmHg 51%
    03:00 +24°C° 0 mm 1 mps 734 mmHg 51%
    04:00 +24°C° 0 mm 1 mps 734 mmHg 51%
    05:00 +26°C° 0 mm 1 mps 734 mmHg 46%
    06:00 +28°C° 0 mm 1 mps 734 mmHg 40%
    07:00 +30°C° 0 mm 1 mps 734 mmHg 33%
    08:00 +32°C° 0 mm 2 mps 735 mmHg 28%
    09:00 +35°C° 0 mm 3 mps 735 mmHg 24%
    10:00 +38°C° 0 mm 4 mps 735 mmHg 19%
    11:00 +38°C° 0 mm 4 mps 735 mmHg 20%
    12:00 +38°C° 0 mm 4 mps 735 mmHg 22%
    13:00 +38°C° 0 mm 4 mps 734 mmHg 23%
    14:00 +37°C° 0 mm 4 mps 734 mmHg 26%
    15:00 +36°C° 0 mm 3 mps 734 mmHg 30%
    16:00 +35°C° 0 mm 3 mps 734 mmHg 33%
    17:00 +32°C° 0 mm 2 mps 734 mmHg 38%
    18:00 +31°C° 0 mm 2 mps 734 mmHg 44%
    19:00 +29°C° 0 mm 1 mps 734 mmHg 50%
    20:00 +27°C° 0 mm 2 mps 734 mmHg 56%
    21:00 +26°C° 0 mm 2 mps 734 mmHg 63%
    22:00 +24°C° 0 mm 2 mps 734 mmHg 69%
    23:00 +24°C° 0 mm 2 mps 734 mmHg 69%

    Tomorrow, 25 June, Tuesday

    Time Temperature Precipitation Wind Pressure Humidity
    00:00 +24°C° 0 mm 2 mps 734 mmHg 69%
    01:00 +23°C° 0 mm 2 mps 734 mmHg 69%
    02:00 +23°C° 0 mm 2 mps 734 mmHg 67%
    03:00 +23°C° 0 mm 2 mps 734 mmHg 64%
    04:00 +23°C° 0 mm 2 mps 734 mmHg 62%
    05:00 +25°C° 0 mm 1 mps 734 mmHg 53%
    06:00 +26°C° 0 mm 1 mps 735 mmHg 44%
    07:00 +28°C° 0 mm 1 mps 735 mmHg 36%
    08:00 +30°C° 0 mm 1 mps 735 mmHg 33%
    09:00 +31°C° 0 mm 2 mps 736 mmHg 31%
    10:00 +34°C° 0 mm 2 mps 736 mmHg 28%
    11:00 +34°C° 0 mm 3 mps 736 mmHg 28%
    12:00 +35°C° 0 mm 4 mps 736 mmHg 28%
    13:00 +35°C° 0 mm 5 mps 736 mmHg 28%
    14:00 +34°C° 0 mm 5 mps 736 mmHg 31%
    15:00 +33°C° 0 mm 4 mps 736 mmHg 34%
    16:00 +33°C° 0 mm 4 mps 736 mmHg 37%
    17:00 +30°C° 0 mm 3 mps 736 mmHg 42%
    18:00 +29°C° 0 mm 2 mps 736 mmHg 47%
    19:00 +27°C° 0 mm 1 mps 736 mmHg 51%
    20:00 +26°C° 0 mm 1 mps 736 mmHg 55%
    21:00 +25°C° 0 mm 1 mps 736 mmHg 58%
    22:00 +22°C° 0 mm 0 mps 736 mmHg 62%
    23:00 +24°C° 0 mm 1 mps 736 mmHg 61%

    Day after tomorrow, 26 June, Wednesday

    Time Temperature Precipitation Wind Pressure Humidity
    00:00 +24°C° 0 mm 1 mps 736 mmHg 60%
    01:00 +24°C° 0 mm 1 mps 736 mmHg 59%
    02:00 +24°C° 0 mm 1 mps 736 mmHg 58%
    03:00 +24°C° 0 mm 1 mps 736 mmHg 58%
    04:00 +24°C° 0 mm 1 mps 736 mmHg 58%
    05:00 +25°C° 0 mm 1 mps 736 mmHg 53%
    06:00 +27°C° 0 mm 1 mps 736 mmHg 47%
    07:00 +27°C° 0 mm 0 mps 737 mmHg 42%
    08:00 +30°C° 0 mm 1 mps 737 mmHg 39%
    09:00 +32°C° 0 mm 2 mps 737 mmHg 36%
    10:00 +34°C° 0 mm 2 mps 737 mmHg 32%
    11:00 +34°C° 0 mm 3 mps 737 mmHg 33%
    12:00 +34°C° 0 mm 4 mps 737 mmHg 33%
    13:00 +34°C° 0 mm 5 mps 737 mmHg 34%
    14:00 +34°C° 0 mm 5 mps 737 mmHg 34%
    15:00 +34°C° 0 mm 5 mps 736 mmHg 35%
    16:00 +33°C° 0 mm 4 mps 736 mmHg 35%
    17:00 +32°C° 0 mm 4 mps 736 mmHg 39%
    18:00 +30°C° 0 mm 3 mps 736 mmHg 42%
    19:00 +29°C° 0 mm 2 mps 736 mmHg 45%
    20:00 +27°C° 0 mm 2 mps 736 mmHg 48%
    21:00 +26°C° 0 mm 1 mps 736 mmHg 51%
    22:00 +23°C° 0 mm 0 mps 736 mmHg 54%
    23:00 +23°C° 0 mm 0 mps 736 mmHg 54%

    27 June, Thursday

    Time Temperature Precipitation Wind Pressure Humidity
    00:00 +23°C° 0 mm 0 mps 736 mmHg 54%
    01:00 +23°C° 0 mm 0 mps 735 mmHg 54%
    02:00 +25°C° 0 mm 1 mps 735 mmHg 55%
    03:00 +25°C° 0 mm 1 mps 735 mmHg 55%
    04:00 +25°C° 0 mm 1 mps 735 mmHg 56%
    05:00 +26°C° 0 mm 1 mps 735 mmHg 51%
    06:00 +28°C° 0 mm 1 mps 735 mmHg 47%
    07:00 +29°C° 0 mm 1 mps 735 mmHg 43%
    08:00 +31°C° 0 mm 1 mps 735 mmHg 39%
    09:00 +32°C° 0 mm 2 mps 735 mmHg 35%
    10:00 +35°C° 0 mm 2 mps 736 mmHg 31%
    11:00 +35°C° 0 mm 3 mps 735 mmHg 32%
    12:00 +35°C° 0 mm 4 mps 735 mmHg 32%
    13:00 +35°C° 0 mm 5 mps 735 mmHg 32%
    14:00 +35°C° 0 mm 5 mps 735 mmHg 34%
    15:00 +34°C° 0 mm 5 mps 734 mmHg 36%
    16:00 +33°C° 0 mm 5 mps 734 mmHg 38%
    17:00 +32°C° 0 mm 4 mps 734 mmHg 43%
    18:00 +30°C° 0 mm 3 mps 734 mmHg 47%
    19:00 +28°C° 0 mm 2 mps 734 mmHg 51%
    20:00 +27°C° 0 mm 1 mps 734 mmHg 54%
    21:00 +26°C° 0 mm 1 mps 734 mmHg 58%
    22:00 +23°C° 0 mm 0 mps 734 mmHg 61%
    23:00 +23°C° 0 mm 0 mps 734 mmHg 59%

    28 June, Friday

    Time Temperature Precipitation Wind Pressure Humidity
    00:00 +23°C° 0 mm 0 mps 733 mmHg 58%
    01:00 +25°C° 0 mm 1 mps 733 mmHg 57%
    02:00 +25°C° 0 mm 1 mps 733 mmHg 56%
    03:00 +25°C° 0 mm 1 mps 733 mmHg 55%
    04:00 +25°C° 0 mm 1 mps 732 mmHg 54%
    05:00 +27°C° 0 mm 1 mps 732 mmHg 49%
    06:00 +29°C° 0 mm 1 mps 732 mmHg 44%
    07:00 +30°C° 0 mm 1 mps 732 mmHg 39%
    08:00 +32°C° 0 mm 2 mps 733 mmHg 35%
    09:00 +35°C° 0 mm 2 mps 733 mmHg 31%
    10:00 +36°C° 0 mm 2 mps 733 mmHg 27%
    11:00 +36°C° 0 mm 3 mps 733 mmHg 28%
    12:00 +36°C° 0 mm 4 mps 732 mmHg 28%
    13:00 +36°C° 0 mm 5 mps 732 mmHg 29%
    14:00 +35°C° 0 mm 4 mps 732 mmHg 32%
    15:00 +34°C° 0 mm 4 mps 732 mmHg 35%
    16:00 +34°C° 0 mm 4 mps 732 mmHg 37%
    17:00 +31°C° 0 mm 3 mps 731 mmHg 41%
    18:00 +30°C° 0 mm 2 mps 731 mmHg 44%
    19:00 +29°C° 0 mm 1 mps 731 mmHg 48%
    20:00 +28°C° 0 mm 1 mps 731 mmHg 49%
    21:00 +27°C° 0 mm 1 mps 732 mmHg 51%
    22:00 +26°C° 0 mm 1 mps 732 mmHg 53%
    23:00 +26°C° 0 mm 1 mps 731 mmHg 51%

    29 June, Saturday

    Time Temperature Precipitation Wind Pressure Humidity
    00:00 +26°C° 0 mm 1 mps 731 mmHg 49%
    01:00 +26°C° 0 mm 1 mps 731 mmHg 48%
    02:00 +26°C° 0 mm 1 mps 731 mmHg 46%
    03:00 +26°C° 0 mm 1 mps 731 mmHg 45%
    04:00 +26°C° 0 mm 1 mps 730 mmHg 44%
    05:00 +28°C° 0 mm 1 mps 731 mmHg 41%
    06:00 +29°C° 0 mm 1 mps 731 mmHg 38%
    07:00 +31°C° 0 mm 1 mps 731 mmHg 35%
    08:00 +32°C° 0 mm 1 mps 731 mmHg 33%
    09:00 +35°C° 0 mm 2 mps 732 mmHg 30%
    10:00 +36°C° 0 mm 3 mps 732 mmHg 28%
    11:00 +35°C° 0 mm 3 mps 732 mmHg 30%
    12:00 +35°C° 0 mm 4 mps 732 mmHg 32%
    13:00 +34°C° 0 mm 4 mps 731 mmHg 34%
    14:00 +34°C° 0 mm 4 mps 731 mmHg 34%
    15:00 +34°C° 0 mm 4 mps 731 mmHg 35%
    16:00 +34°C° 0 mm 4 mps 731 mmHg 36%
    17:00 +32°C° 0 mm 4 mps 731 mmHg 40%
    18:00 +30°C° 0 mm 3 mps 731 mmHg 45%
    19:00 +28°C° 0 mm 2 mps 731 mmHg 49%
    20:00 +27°C° 0 mm 2 mps 731 mmHg 54%
    21:00 +25°C° 0 mm 1 mps 731 mmHg 58%
    22:00 +24°C° 0 mm 1 mps 731 mmHg 63%
    23:00 +24°C° 0 mm 1 mps 731 mmHg 62%
    Show more